EST,Max TemperatureF,Mean TemperatureF,Min TemperatureF,Max Dew PointF,MeanDew PointF,Min DewpointF,Max Humidity, Mean Humidity, Min Humidity, Max Sea Level PressureIn, Mean Sea Level PressureIn, Min Sea Level PressureIn, Max VisibilityMiles, Mean VisibilityMiles, Min VisibilityMiles, Max Wind SpeedMPH, Mean Wind SpeedMPH, Max Gust SpeedMPH,PrecipitationIn, CloudCover, Events, WindDirDegrees
2013-1-1,29,24,18,27,20,11,92,80,67,30.04,29.96,29.88,10,7,2,20,10,23,0.01,8,Snow,285
2013-1-2,21,16,11,13,10,9,88,78,67,30.24,30.12,29.96,10,9,4,17,8,21,T,6,Snow,268
2013-1-3,26,16,6,19,11,5,91,77,62,30.22,30.13,30.00,10,9,6,22,9,30,0.00,6,,244
2013-1-4,27,25,23,19,17,15,81,72,63,30.17,30.09,29.98,10,6,0,26,18,35,T,6,Fog-Snow,252
2013-1-5,29,26,22,21,18,15,92,81,69,30.38,30.25,30.14,10,7,2,23,8,29,0.00,7,,242
2013-1-6,33,31,28,29,25,21,92,81,69,30.14,30.01,29.91,10,7,2,17,11,25,T,8,Snow,235
2013-1-7,31,27,22,28,23,19,92,84,75,30.43,30.32,30.17,10,7,2,16,8,23,0.07,6,,261
2013-1-8,38,27,16,24,20,16,92,70,48,30.37,30.32,30.22,10,7,2,13,4,17,0.00,0,,209
2013-1-9,41,33,25,34,28,22,85,73,61,30.42,30.26,30.13,10,10,7,25,11,32,0.01,2,,224
2013-1-10,38,31,24,26,24,23,92,73,54,30.60,30.51,30.40,10,9,2,15,5,20,0.00,0,,246
2013-1-11,39,37,35,37,33,22,100,76,52,30.36,30.08,29.97,10,4,0,18,10,26,0.40,7,Fog-Rain,124
2013-1-12,53,45,37,52,47,37,100,97,93,30.09,30.05,29.99,10,2,0,10,4,14,0.00,4,Fog,171
2013-1-13,65,55,45,54,50,45,100,82,63,29.98,29.90,29.83,10,8,1,20,8,26,0.10,4,Rain,179
2013-1-14,55,42,28,54,33,19,100,81,61,30.35,30.12,29.86,10,9,2,26,8,38,0.03,6,Rain,297
2013-1-15,31,26,20,21,19,18,88,73,58,30.38,30.27,30.11,10,10,6,10,4,14,0.00,1,,43
2013-1-16,31,29,26,31,27,23,100,88,75,30.09,29.93,29.80,10,4,0,18,9,23,0.16,7,Fog-Snow,170
2013-1-17,30,27,24,27,24,19,92,81,69,30.15,30.05,29.91,10,6,0,20,10,26,T,7,Fog-Snow,259
2013-1-18,27,20,13,21,10,3,77,62,46,30.46,30.27,30.03,10,7,1,21,12,30,T,5,Snow,277
2013-1-19,46,37,27,21,16,11,46,39,31,30.21,30.02,29.77,10,10,10,24,16,35,0.00,2,,223
2013-1-20,42,29,16,28,15,7,68,54,39,30.11,29.91,29.68,10,8,2,37,18,48,T,6,Snow,268
2013-1-21,18,13,7,14,10,-2,84,73,61,30.06,29.89,29.80,10,4,0,23,11,31,T,7,Fog-Snow,259
2013-1-22,8,4,0,0,-4,-6,83,73,63,30.24,30.06,29.86,10,6,0,28,15,38,T,6,Snow,265
2013-1-23,11,5,-1,1,-2,-6,95,77,58,30.26,30.13,29.98,10,7,1,16,10,24,T,6,Snow,253
2013-1-24,17,9,0,5,0,-5,91,67,42,30.54,30.22,29.95,10,6,1,21,6,26,T,5,Snow,300
2013-1-25,12,7,2,9,4,-3,91,77,63,30.50,30.14,29.94,10,5,0,13,4,17,0.03,6,Fog-Snow,122
2013-1-26,22,17,11,18,13,9,96,85,73,30.43,30.16,29.97,9,4,1,13,7,16,T,8,Snow,273
2013-1-27,19,12,8,13,10,7,96,85,73,30.56,30.45,30.34,8,3,0,6,2,,0.00,4,Fog,259
2013-1-28,44,34,24,45,32,17,100,87,74,30.34,30.08,29.94,8,1,0,22,11,31,0.27,8,Fog-Rain-Snow,196
2013-1-29,55,49,43,52,48,44,100,92,83,30.04,29.96,29.83,10,2,0,15,6,21,0.03,6,Fog-Rain,211
2013-1-30,59,54,48,54,50,43,100,86,72,29.78,29.43,29.17,10,6,2,35,11,44,1.08,6,Rain,185
2013-1-31,47,32,17,40,17,7,89,78,67,29.80,29.53,29.17,10,3,0,38,22,49,0.10,8,Fog-Rain-Snow,258